ATLAS CENTAUR 2 R/B 1 00694U 63047A 23340.68292299 .00001426 00000-0 17212-3 0 9997 2 00694 30.3542 101.6816 0570855 48.2029 316.5927 14.06272946 15286 THOR AGENA D R/B 1 733U 64002A 23340.51676409 .00000351 00000-0 14479-3 0 9992 2 733 99.0480 296.0814 0034092 136.6515 223.7358 14.32981435120654 SL-3 R/B 1 877U 64053B 23341.02886575 .00000332 00000-0 90454-4 0 9998 2 877 65.0765 223.6070 0082378 263.7094 95.4617 14.60073520146485 SL-8 R/B 1 02802U 67045B 23340.48112912 .00000513 00000-0 15287-3 0 9999 2 02802 74.0128 85.9759 0066916 291.6342 67.7696 14.44424801970003 SL-8 R/B 1 3230U 68040B 23341.04054207 .00002524 00000-0 23538-3 0 9998 2 3230 74.0337 185.5354 0029071 228.4742 131.3948 14.94522269987831 OAO 2 1 03597U 68110A 23340.89790836 .00000318 00000-0 92610-4 0 9996 2 03597 34.9914 181.5019 0004933 72.2239 287.8990 14.46356884899755 ISIS 1 1 03669U 69009A 23340.14529082 .00000335 00000-0 24158-3 0 9995 2 03669 88.4280 245.6655 1710301 313.1721 33.8197 11.29803422255397 SERT 2 1 04327U 70009A 23340.95933309 .00000026 00000-0 91371-4 0 9998 2 04327 99.1618 317.9023 0005610 107.4160 315.4443 13.58588335668034 SL-3 R/B 1 04814U 70113B 23340.91614841 .00066133 00000-0 52610-3 0 9991 2 04814 81.1289 57.2292 0010971 189.7209 170.3838 15.70884706898549 SL-3 R/B 1 05118U 71028B 23340.95742349 .00008090 00000-0 32664-3 0 9999 2 05118 81.2508 315.1593 0036400 264.8956 94.8122 15.24014381861977 ASTEX 1 1 5560U 71089A 23341.16900920 .00000676 00000-0 17831-3 0 9993 2 5560 92.7212 245.4871 0015707 351.7336 8.3608 14.49032481743252 SL-8 R/B 1 5730U 71119B 23341.13137874 .00011895 00000-0 71723-3 0 9998 2 5730 73.8948 251.8588 0629373 25.7468 337.3617 14.17783443537923 COSMOS 482 DESCENT CRAFT 1 6073U 72023E 23341.23513686 .00094975 75682-5 20976-3 0 9991 2 6073 52.0073 78.6338 0853528 190.3259 167.9124 14.26409472673757 OAO 3 (COPERNICUS) 1 6153U 72065A 23341.09030822 .00000524 00000-0 11516-3 0 9990 2 6153 35.0072 305.1152 0007520 268.2450 184.0628 14.58655767726088 ATLAS CENTAUR R/B 1 06155U 72065B 23340.68657195 .00001709 00000-0 25868-3 0 9995 2 06155 35.0036 80.3773 0036504 295.2752 64.4167 14.73634520719464 SL-8 R/B 1 08459U 75112B 23340.47897304 .00000404 00000-0 14390-3 0 9994 2 08459 74.0619 94.0762 0015463 27.4732 332.7235 14.37291657513411 SL-3 R/B 1 10114U 77057B 23340.93657112 .00005607 00000-0 22997-3 0 9999 2 10114 97.4823 119.7193 0011344 347.9992 12.0973 15.24602339542018 SEASAT 1 1 10967U 78064A 23340.54114865 .00000431 00000-0 16356-3 0 9996 2 10967 107.9949 198.6976 0002413 296.7860 63.3038 14.44650064387733 METEOR 1-29 1 11251U 79005A 23341.02207679 .00083605 00000-0 44955-3 0 9999 2 11251 97.7430 1.8383 0004875 190.8537 169.2625 15.79977454 4027 SL-14 R/B 1 11267U 79011B 23340.94697008 .00000787 00000-0 78924-4 0 9996 2 11267 82.5235 156.9837 0015190 288.1075 71.8489 14.89992878406035 SL-8 R/B 1 11574U 79089B 23340.56385451 .00000318 00000-0 10614-3 0 9997 2 11574 74.0676 175.3924 0016143 201.4156 158.6326 14.41334864317320 SL-14 R/B 1 11672U 80005B 23340.55406742 .00000686 00000-0 70055-4 0 9996 2 11672 82.5157 7.8329 0016997 33.8613 326.3686 14.89026919353769 SL-8 R/B 1 12139U 81003B 23340.91217459 .00010732 00000-0 41953-3 0 9996 2 12139 82.9414 311.4222 0391014 88.7356 275.8611 14.76143095191771 SL-3 R/B 1 12465U 81046B 23341.13447029 .00004367 00000-0 18983-3 0 9992 2 12465 81.2391 182.0369 0029281 327.4397 32.5027 15.21667739325488 METEOR PRIRODA 1 12585U 81065A 23341.05426098 .00009633 00000-0 29876-3 0 9994 2 12585 97.5670 0.0498 0012335 49.9319 310.3003 15.33556370322080 SL-3 R/B 1 12904U 81103B 23340.87977892 .00003689 00000-0 22229-3 0 9994 2 12904 81.1582 91.4318 0021618 177.8321 182.3003 15.10362342848437 SL-3 R/B 1 13068U 82013B 23341.13627666 .00002479 00000-0 14234-3 0 9991 2 13068 81.1783 38.5830 0027815 60.4505 299.9488 15.11839088279751 SL-3 R/B 1 13154U 82039B 23340.88454891 .00003314 00000-0 24486-3 0 9993 2 13154 81.1830 78.2886 0037548 145.6123 214.7540 15.02399824257612 SL-3 R/B 1 13403U 82079B 23340.85118514 .00003255 00000-0 18454-3 0 9992 2 13403 81.1525 76.3976 0031638 50.1648 310.2355 15.12279534252678 SL-3 R/B 1 13819U 83010B 23340.74588639 .00006550 00000-0 27100-3 0 9995 2 13819 81.1123 273.1951 0026516 1.9958 358.1375 15.23471273231632 COSMOS 1455 1 14032U 83037A 23340.29973827 .00011953 00000-0 40033-3 0 9992 2 14032 82.5098 263.9455 0011511 331.9369 28.1249 15.30746356220034 SL-3 R/B 1 14208U 83075B 23340.94783468 .00005685 00000-0 27715-3 0 9998 2 14208 97.5487 314.9027 0031379 250.2148 109.5702 15.18299118204384 COSMOS 1500 1 14372U 83099A 23340.92854818 .00010822 00000-0 34454-3 0 9999 2 14372 82.5090 157.3753 0011114 107.7553 252.4902 15.32371082196563 COSMOS 1536 1 14699U 84013A 23340.88516703 .00004006 00000-0 24002-3 0 9996 2 14699 82.5522 197.6800 0017182 266.2806 93.6459 15.10604796147732 COSMOS 1544 1 14819U 84027A 23340.96401222 .00031782 00000-0 50739-3 0 9990 2 14819 82.4696 153.6131 0008439 313.6713 46.3839 15.52998670177390 SL-14 R/B 1 14820U 84027B 23340.36636765 .00000727 00000-0 83290-4 0 9992 2 14820 82.5412 297.1827 0018556 175.7602 184.3775 14.84468196125271 SL-8 R/B 1 15483U 85006B 23341.15739400 .00000346 00000-0 12555-3 0 9996 2 15483 74.0457 335.4390 0017231 93.9717 338.8850 14.36864514 35978 COSMOS 1626 1 15494U 85009A 23340.55386111 .00017076 00000-0 40707-3 0 9999 2 15494 82.4733 31.7253 0002422 72.1043 288.0467 15.41440555128897 SL-12 R/B(2) 1 15772U 85042D 23340.56631424 .00000212 00000-0 11777-3 0 9995 2 15772 71.1093 28.2742 0036856 324.8958 198.4218 14.21529840997258 SL-14 R/B 1 15945U 85069B 23340.39181345 .00000702 00000-0 79506-4 0 9998 2 15945 82.5283 79.1586 0020267 44.0726 316.2100 14.84880411 50445 SL-16 R/B 1 16182U 85097B 23340.53029361 .00000231 00000-0 14022-3 0 9996 2 16182 71.0039 75.3585 0005373 65.2415 22.8986 14.16377469970834 SL-14 R/B 1 16496U 86006B 23340.95015053 .00000656 00000-0 73988-4 0 9992 2 16496 82.5235 313.8328 0018996 180.3396 233.1731 14.84973383 26888 COSMOS 1743 1 16719U 86034A 23341.06747728 .00006156 00000-0 25263-3 0 9998 2 16719 82.5483 190.1817 0010905 1.2122 358.9139 15.23986825 53999 SL-14 R/B 1 16792U 86046B 23340.93841614 .00000656 00000-0 75435-4 0 9992 2 16792 82.4810 137.4975 0025179 68.9961 291.3945 14.84064975 4161 SL-14 R/B 1 16882U 86055B 23340.96360187 .00000555 00000-0 63526-4 0 9992 2 16882 82.5206 180.0155 0019579 170.1081 306.1797 14.84080060997154 EGS (AJISAI) 1 16908U 86061A 23340.94051726 -.00000113 00000-0 -10823-3 0 9995 2 16908 50.0090 106.3267 0011173 351.2030 156.7809 12.44503115365424 COSMOS 1812 1 17295U 87003A 23341.04144014 .00008806 00000-0 33975-3 0 9995 2 17295 82.5088 330.9554 0003406 154.2608 205.8800 15.26147934 17288 SL-14 R/B 1 17567U 87024B 23340.93168192 .00000675 00000-0 76832-4 0 9996 2 17567 82.5273 145.9638 0020268 104.7322 255.6142 14.84594405965917 COSMOS 1833 1 17589U 87027A 23340.20178976 -.00000272 00000-0 -11993-3 0 9995 2 17589 70.9158 258.9408 0022177 349.7127 10.3537 14.12938298894074 SL-16 R/B 1 17590U 87027B 23341.05069176 .00000195 00000-0 12080-3 0 9992 2 17590 71.0020 211.7729 0007069 289.4366 70.5993 14.16928016898931 SL-14 R/B 1 17912U 87038B 23340.51099393 .00000601 00000-0 69366-4 0 9998 2 17912 82.5016 352.2550 0019970 10.6733 349.4902 14.83859234978026 COSMOS 1844 1 17973U 87041A 23340.42575551 .00000022 00000-0 36471-4 0 9992 2 17973 70.8999 332.3832 0030930 185.0530 175.0284 14.14275596887039 SL-14 R/B 1 18153U 87055B 23341.17022867 .00000545 00000-0 62219-4 0 9997 2 18153 82.5015 44.3961 0020544 210.2860 149.7169 14.84109824968812 COSMOS 1867 1 18187U 87060A 23340.49872891 .00000001 00000-0 38114-4 0 9998 2 18187 65.0109 94.4175 0018200 281.5036 78.4005 14.31251540901969 SL-14 R/B 1 18749U 88001B 23341.18139284 .00000587 00000-0 67376-4 0 9998 2 18749 82.5147 249.1676 0020172 79.9443 280.4047 14.84027899940900 COSMOS 1933 1 18958U 88020A 23340.80728124 .00003640 00000-0 23403-3 0 9991 2 18958 82.5252 339.5350 0008680 142.1949 217.9891 15.08104067925686 SL-3 R/B 1 19046U 88032B 23341.13698679 .00002753 00000-0 18203-3 0 9997 2 19046 97.4316 323.7858 0032781 198.2760 161.7293 15.07757125927795 SL-16 R/B 1 19120U 88039B 23340.49879056 .00000086 00000-0 63681-4 0 9993 2 19120 71.0153 10.9680 0021362 170.6226 189.5302 14.19360341841423 COSMOS 1953 1 19210U 88050A 23341.20935558 .00003861 00000-0 22102-3 0 9992 2 19210 82.5150 256.0300 0017531 112.9958 247.3124 15.12233652933800 SL-8 R/B 1 19257U 88053B 23341.05622963 .00000281 00000-0 10134-3 0 9997 2 19257 74.0463 189.5561 0020938 216.8914 305.0478 14.37998637858441 COSMOS 1975 1 19573U 88093A 23340.60667791 .00004920 00000-0 28916-3 0 9991 2 19573 82.5276 213.7233 0016068 158.6584 201.5320 15.11363861894252 SL-14 R/B 1 19574U 88093B 23340.43062634 .00000788 00000-0 91206-4 0 9999 2 19574 82.5317 94.8833 0020008 241.0642 187.1626 14.84140765878710 SL-16 R/B 1 19650U 88102B 23340.53573220 .00000137 00000-0 93751-4 0 9999 2 19650 71.0007 85.3024 0014512 195.2316 164.8372 14.15930463810220 INTERCOSMOS 24 1 20261U 89080A 23340.93850848 .00001386 00000-0 40529-3 0 9994 2 20261 82.6046 279.5082 1198016 41.5024 327.1028 12.57405411563179 SL-14 R/B 1 20262U 89080C 23340.48688807 .00000492 00000-0 15048-3 0 9994 2 20262 82.5945 342.1223 1233303 267.4518 78.5175 12.49539169557179 DELTA 1 R/B 1 20323U 89089B 23340.47941126 .00000506 00000-0 13787-3 0 9990 2 20323 97.0930 300.5359 0070123 201.3534 158.4734 14.49164747776296 DELTA 2 R/B(1) 1 20453U 90008B 23340.92575401 .00008008 00000-0 34338-3 0 9996 2 20453 35.6203 287.8230 0223879 163.7826 197.0202 15.02301252800380 COSMOS 2058 1 20465U 90010A 23340.92480750 .00002755 00000-0 20938-3 0 9998 2 20465 82.4861 131.6989 0013243 240.8103 119.1798 15.01739188818204 SL-14 R/B 1 20466U 90010B 23340.93787861 .00000578 00000-0 69335-4 0 9999 2 20466 82.5014 320.2082 0021556 129.6619 230.6501 14.82144520806406 SL-14 R/B 1 20511U 90018B 23340.33194366 .00000696 00000-0 87232-4 0 9991 2 20511 82.5227 272.8202 0015540 283.1351 194.7299 14.80776055800527 HST 1 20580U 90037B 23340.90266007 .00004391 00000-0 21825-3 0 9994 2 20580 28.4673 197.3364 0002807 87.5477 26.5811 15.15130046647663 SL-16 R/B 1 20625U 90046B 23341.14993181 .00000300 00000-0 17983-3 0 9997 2 20625 70.9990 227.1887 0012368 120.6840 239.5503 14.14793099732159 COSMOS 2084 1 20663U 90055A 23341.13241185 .00002674 00000-0 21396-3 0 9997 2 20663 62.7909 246.9933 0127562 102.2127 259.3289 14.96678466812664 SL-6 R/B(2) 1 20666U 90055D 23340.94123812 .00002937 00000-0 24358-3 0 9997 2 20666 62.7825 161.2990 0110215 124.0913 237.0702 14.96572234814591 SL-8 R/B 1 20775U 90078B 23340.26449915 .00012658 00000-0 53383-3 0 9994 2 20775 82.9190 252.0250 0495250 194.2966 164.3793 14.53896363688092 SL-8 R/B 1 21088U 91006B 23340.36739167 .00000079 00000-0 64333-4 0 9998 2 21088 82.9439 63.2016 0022700 180.6038 250.6368 13.77297194650596 OKEAN 3 1 21397U 91039A 23341.18532227 .00002335 00000-0 20204-3 0 9991 2 21397 82.5217 49.7681 0015613 236.9200 123.0524 14.96662762762597 COSMOS 2151 1 21422U 91042A 23340.70800697 .00001984 00000-0 18018-3 0 9999 2 21422 82.4980 155.1139 0012901 320.4307 39.5971 14.94732830739870 SL-14 R/B 1 21423U 91042B 23340.33750377 .00000663 00000-0 83367-4 0 9991 2 21423 82.4935 272.4637 0018972 69.7184 290.6066 14.80502346731045 ERS 1 1 21574U 91050A 23340.55526895 .00000332 00000-0 12335-3 0 9996 2 21574 98.7619 323.0929 0033417 124.2592 236.1767 14.38314344697214 ARIANE 40 R/B 1 21610U 91050F 23341.14834019 .00000442 00000-0 14877-3 0 9998 2 21610 98.3179 43.4066 0004007 60.6530 299.5060 14.41605937700551 INTERCOSMOS 25 1 21819U 91086A 23340.32252048 .00001433 00000-0 27742-3 0 9999 2 21819 82.6062 86.8569 1505030 88.5815 288.6531 12.07994353396989 SL-14 R/B 1 21820U 91086B 23340.90455007 .00000644 00000-0 12493-3 0 9995 2 21820 82.5590 163.4287 1570295 14.5222 349.6038 11.94679386388792 SL-8 R/B 1 21876U 92008B 23340.94358988 .00000053 00000-0 39376-4 0 9999 2 21876 82.9256 160.2878 0033586 275.4959 195.4036 13.75782862596148 SL-8 R/B 1 21938U 92020B 23340.29173399 .00000076 00000-0 62338-4 0 9990 2 21938 82.9322 45.9953 0030486 79.6333 346.0085 13.75386376587801 SL-16 R/B 1 22220U 92076B 23340.52013503 .00000302 00000-0 17530-3 0 9997 2 22220 70.9993 124.1471 0015175 271.3517 151.8952 14.16608572605105 SL-16 R/B 1 22285U 92093B 23340.94528987 -.00000211 00000-0 -83865-4 0 9996 2 22285 71.0216 293.2201 0002586 154.5622 205.5629 14.15208393596604 COSMOS 2228 1 22286U 92094A 23340.93410134 .00002105 00000-0 20953-3 0 9991 2 22286 82.5182 302.3221 0020075 179.9675 180.1549 14.91043779653040 SL-16 R/B 1 22566U 93016B 23340.90910969 .00000052 00000-0 51141-4 0 9998 2 22566 71.0067 145.0794 0008833 148.1360 212.0299 14.15093700585620 COSMOS 2242 1 22626U 93024A 23340.92900815 .00002011 00000-0 20164-3 0 9992 2 22626 82.5200 331.0493 0018090 181.0071 179.1115 14.90763424657414 SL-16 R/B 1 22803U 93059B 23340.93908776 .00000186 00000-0 11621-3 0 9991 2 22803 70.9904 307.9309 0016360 17.6742 342.4947 14.16978273562835 ARIANE 40 R/B 1 22830U 93061H 23340.17660372 .00000400 00000-0 16566-3 0 9999 2 22830 98.5978 44.8860 0010722 194.6007 165.4869 14.31930763576062 COSMOS 2278 1 23087U 94023A 23340.50137294 .00000197 00000-0 12823-3 0 9997 2 23087 71.0547 99.0010 0009992 220.4104 139.6277 14.14027785528286 SL-16 R/B 1 23088U 94023B 23340.46373850 .00000348 00000-0 20491-3 0 9991 2 23088 71.0002 1.5749 0001480 142.9685 217.1540 14.14800174529508 SL-16 R/B 1 23343U 94074B 23340.57437205 .00000595 00000-0 89934-4 0 9990 2 23343 97.8173 24.6557 0007300 30.2781 96.6641 14.77739417565460 SL-16 R/B 1 23405U 94077B 23340.27042212 .00000002 00000-0 25438-4 0 9991 2 23405 70.9824 286.6271 0004104 304.6853 55.3883 14.15345728499572 ERS 2 1 23560U 95021A 23340.95194592 .00088392 00000-0 86999-3 0 9993 2 23560 98.5259 336.8615 0004949 85.5270 274.6552 15.65691102535933 ARIANE 40+ R/B 1 23561U 95021B 23340.16201774 .00000462 00000-0 16524-3 0 9997 2 23561 98.5544 42.5691 0007959 89.6109 324.6919 14.38630214500645 SL-16 R/B 1 23705U 95058B 23340.52032478 -.00000101 00000-0 -27354-4 0 9996 2 23705 71.0220 110.3013 0014829 291.7710 68.1834 14.15273836451236 SL-16 R/B 1 24298U 96051B 23340.82290557 -.00000107 00000-0 -31351-4 0 9993 2 24298 70.8196 117.0055 0018205 270.0563 89.8471 14.12513650405314 ORBVIEW 2 (SEASTAR) 1 24883U 97037A 23340.99485816 .00000444 00000-0 17428-3 0 9990 2 24883 98.7480 113.2892 0001751 353.5217 6.5944 14.34275496390600 SL-16 R/B 1 25400U 98043G 23340.42361248 .00000127 00000-0 72218-4 0 9991 2 25400 98.7249 277.1683 0008845 244.6507 115.3757 14.25674760321523 SL-16 R/B 1 25407U 98045B 23340.50588560 .00000005 00000-0 26521-4 0 9998 2 25407 71.0103 114.5102 0008616 216.4053 143.6485 14.15953354310429 ISS (ZARYA) 1 25544U 98067A 23341.21222630 .00013946 00000-0 24974-3 0 9993 2 25544 51.6410 191.5311 0001459 12.9146 152.5505 15.50245044428627 CZ-4B R/B 1 25732U 99025C 23341.12806583 .00000074 00000-0 57314-4 0 9995 2 25732 98.7817 23.7124 0037251 187.5782 232.0433 14.17893769271581 OKEAN O 1 25860U 99039A 23341.16203194 .00000888 00000-0 13059-3 0 9995 2 25860 98.0664 28.6236 0001804 101.3393 258.8020 14.77940952312735 SL-16 R/B 1 25861U 99039B 23341.12432362 .00000690 00000-0 99021-4 0 9998 2 25861 98.1177 20.4175 0016204 45.9098 314.3443 14.79678253315119 TERRA 1 25994U 99068A 23341.18316802 .00000588 00000-0 13349-3 0 9997 2 25994 98.0758 45.1303 0000917 206.2458 210.1201 14.59476833275010 ENVISAT 1 27386U 02009A 23341.08538758 .00000182 00000-0 73190-4 0 9999 2 27386 98.2561 304.2027 0001295 82.9491 30.5577 14.38461261140814 IDEFIX/ARIANE 42P 1 27422U 02021B 23340.40374202 .00000444 00000-0 18886-3 0 9992 2 27422 98.5093 277.2018 0013284 93.7063 266.5638 14.29883963126172 AQUA 1 27424U 02022A 23341.11033744 .00001246 00000-0 27744-3 0 9991 2 27424 98.3079 285.1371 0001586 51.4558 5.0159 14.58640521148562 CZ-4B R/B 1 27432U 02024C 23340.95474043 .00000073 00000-0 61404-4 0 9993 2 27432 99.0036 17.0821 0050114 196.8665 228.8638 14.14263492112791 ADEOS 2 1 27597U 02056A 23340.47245223 .00000489 00000-0 21439-3 0 9997 2 27597 98.6694 283.2397 0000394 126.7691 233.3527 14.28114365 92603 H-2A R/B 1 27601U 02056E 23340.57152674 .00000406 00000-0 15974-3 0 9997 2 27601 98.2095 322.5256 0072764 98.7809 13.1005 14.32561444 96046 CZ-4B R/B 1 28059U 03049C 23340.48610081 .00000563 00000-0 14500-3 0 9997 2 28059 98.5844 292.7618 0048454 226.4290 133.2878 14.53450785 66803 CZ-2C R/B 1 28222U 04012C 23340.52397273 .00008599 00000-0 38309-3 0 9990 2 28222 97.8090 340.7367 0038026 7.0906 353.0858 15.21043521 77619 SL-16 R/B 1 28353U 04021B 23340.94899647 -.00000078 00000-0 -16037-4 0 9994 2 28353 71.0001 160.8684 0006544 231.0258 129.0282 14.14372375 6350 CZ-2C R/B 1 28480U 04046B 23340.81754199 .00000344 00000-0 14377-3 0 9998 2 28480 98.1378 293.2957 0142274 71.4465 290.2113 14.26175421991026 ARIANE 5 R/B 1 28499U 04049H 23341.05435763 .00001471 00000-0 18056-3 0 9991 2 28499 98.1575 110.0069 0090074 136.9147 223.9162 14.81860193 23682 CZ-2D R/B 1 28738U 05024B 23340.51573716 .00006731 00000-0 30295-3 0 9995 2 28738 97.3605 337.6927 0011809 103.4933 256.7619 15.21348176 13175 ASTRO E2 1 28773U 05025A 23340.44807152 .00018859 00000-0 53737-3 0 9991 2 28773 31.3912 2.6383 0002495 111.6055 248.4863 15.34879199 17109 ALOS 1 28931U 06002A 23340.63089614 .00001348 00000-0 26115-3 0 9994 2 28931 98.0122 293.2770 0002296 70.3887 289.7564 14.64844064952636 H-2A R/B 1 28932U 06002B 23341.15127259 .00004932 00000-0 39279-3 0 9998 2 28932 98.2245 57.2790 0079724 121.3488 239.5567 14.98374994970508 RESURS DK-1 1 29228U 06021A 23340.94536809 .00002054 00000-0 14779-3 0 9990 2 29228 69.9339 196.8195 0007008 295.0474 64.9961 15.05912436963211 GENESIS 1 1 29252U 06029A 23340.50602369 .00013096 00000-0 43725-3 0 9993 2 29252 64.5182 95.9452 0003840 253.0196 107.0513 15.31318412960868 CZ-4B R/B 1 29507U 06046C 23341.07553509 .00002776 00000-0 19351-3 0 9990 2 29507 97.6692 13.3037 0041081 212.5271 147.3423 15.05589693935692 CZ-2C R/B 1 31114U 07010B 23340.94005998 .00000224 00000-0 12286-3 0 9994 2 31114 98.3032 123.6437 0059755 170.1458 190.0907 14.19671586862819 SKYMED 1 1 31598U 07023A 23341.12343691 .00000705 00000-0 95094-4 0 9993 2 31598 97.8853 162.1077 0001283 79.2355 280.9003 14.82161470892596 GENESIS 2 1 31789U 07028A 23340.55469891 .00012220 00000-0 41446-3 0 9993 2 31789 64.4913 140.5818 0045102 238.5285 121.1432 15.29891950907794 COSMOS 2428 1 31792U 07029A 23340.54010161 .00000429 00000-0 25720-3 0 9994 2 31792 70.9371 133.0354 0010697 310.1236 49.8947 14.12628300847770 SL-16 R/B 1 31793U 07029B 23340.55332774 .00000264 00000-0 16216-3 0 9990 2 31793 70.9750 104.4490 0002028 256.5867 178.6041 14.14574284848812 KORONAS-FOTON 1 33504U 09003A 23341.22260838 .00005294 00000-0 22363-3 0 9990 2 33504 82.4408 37.5317 0016457 194.1759 165.9018 15.22909260819754 H-2A R/B 1 38341U 12025E 23340.31867349 .00002409 00000-0 26831-3 0 9990 2 38341 98.4347 234.7734 0053410 115.2376 245.4387 14.87122178625360 CUSAT 2/FALCON 9 1 39271U 13055G 23341.03321614 .00031305 -34212-6 47650-3 0 9995 2 39271 80.9423 308.4183 0382530 223.6691 133.3680 15.00400973536228 ALOS 2 1 39766U 14029A 23340.88314815 .00002321 00000-0 31757-3 0 9991 2 39766 97.9231 75.3045 0001468 101.2893 258.8484 14.79474376515069 SL-27 R/B 1 40354U 14084B 23341.17802058 .00022985 00000-0 27736-3 0 9991 2 40354 74.7307 265.7245 0024810 179.4321 180.6934 15.60265114504314 ASTRO H 1 41337U 16012A 23341.07042126 .00002801 00000-0 20077-3 0 9993 2 41337 31.0026 240.8758 0011372 13.4776 346.6162 15.02247277427949